Location: Berlijn
(52.5200°N, 13.4050°E)
Time: 01:24:29
(UTC+02:00)

Envisat - Pass Details

Date: 27 September 2021
Orbit: 764 x 766 km, 98.2° (Epoch: 20 October)

Event Time Altitude Azimuth Distance (km) Brightness Sun altitude
Rises 04:41:31 0° 29° (NNE) 3,244 7.2 -21.3°
Reaches altitude 10° 04:45:27 10° 60° (ENE) 2,310 6.7 -20.8°
Maximum altitude 04:47:26 12° 83° (E) 2,160 6.3 -20.5°
Drops below altitude 10° 04:49:24 10° 106° (ESE) 2,303 6.1 -20.2°
Sets 04:53:17 0° 137° (SE) 3,222 6.5 -19.7°
